Location: Gaast
(52.9002°N, 5.8891°E)
Time: 05:45:10
(UTC+00:00)

Nadezhda 4 Rocket - Pass Details

Date: 18 November 2025
Orbit: 948 x 991 km, 82.9° (Epoch: 11 December)

Event Time Altitude Azimuth Distance (km) Brightness Sun altitude
Rises 16:48:34 0° 351° (N) 3,711 6.9 -10.5°
Reaches altitude 10° 16:51:17 10° 359° (N) 2,754 6.2 -10.9°
Maximum altitude 16:57:14 42° 69° (ENE) 1,373 4.3 -11.8°
Drops below altitude 10° 17:03:05 10° 139° (SE) 2,711 6.1 -12.6°
Sets 17:05:44 0° 147° (SSE) 3,647 6.8 -13.0°
